Location: Montreal
(45.5087°N, 73.5540°W)
Time: 01:53:04
(UTC-04:00)

Courier 1B - All Passes

Search period start: 08 June 2026 00:00
Search period end: 18 June 2026 00:00
Orbit: 962 x 1209 km, 28.3° (Epoch: 7 June)

Date Brightness Start Highest point End Pass type
(mag) Time Alt. Az. Time Alt. Az. Time Alt. Az.
8 Jun - 01:31:15 10° SW 01:35:25 17° S 01:39:30 10° SE visible
8 Jun - 03:24:46 10° SW 03:28:13 15° SSW 03:31:37 10° SSE visible
9 Jun - 00:37:42 10° SSW 00:41:49 17° S 00:45:51 10° SE night (unlit)
9 Jun - 02:30:42 10° SW 02:34:40 16° S 02:38:32 10° SSE visible
9 Jun - 23:44:17 10° SSW 23:48:12 16° S 23:52:02 10° SE visible
10 Jun - 01:36:46 10° SW 01:41:05 18° S 01:45:16 10° SE visible
10 Jun - 03:31:49 10° SW 03:33:49 11° SSW 03:35:48 10° S visible
10 Jun - 22:51:04 10° SSW 22:54:35 14° SSE 22:58:01 10° SE visible
11 Jun - 00:42:56 10° SW 00:47:29 18° S 00:51:52 10° SE night (unlit)
11 Jun - 02:37:03 10° SW 02:40:17 14° SSW 02:43:27 10° SSE visible
11 Jun - 21:58:14 10° S 22:00:57 12° SSE 22:03:37 10° SE visible
11 Jun - 23:49:12 10° SW 23:53:50 18° S 23:58:19 10° SE visible
12 Jun - 01:42:44 10° SW 01:46:43 16° S 01:50:35 10° SSE night (unlit)
12 Jun - 21:06:52 10° SSE 21:07:19 10° SSE 21:07:45 10° SSE daylight
12 Jun - 22:55:36 10° SSW 23:00:11 18° S 23:04:38 10° SE visible
13 Jun - 00:48:37 10° SW 00:53:07 18° S 00:57:27 10° SSE visible
13 Jun - 02:45:16 10° SSW 02:45:50 10° SSW 02:46:24 10° SSW night (unlit)
13 Jun - 22:02:08 10° SSW 22:06:31 17° SSE 22:10:46 10° SE visible
13 Jun - 23:54:38 10° SW 23:59:29 19° S 00:04:08 10° SE visible
14 Jun - 01:49:21 10° SW 01:52:17 13° SSW 01:55:09 10° S night (unlit)
14 Jun - 21:08:55 10° SSW 21:12:50 15° SSE 21:16:41 10° SE daylight
14 Jun - 23:00:46 10° SW 23:05:48 20° S 23:10:40 10° SE visible
15 Jun - 00:54:45 10° SW 00:58:42 15° SSW 01:02:32 10° SSE visible
15 Jun - 20:16:04 10° S 20:19:09 13° SSE 20:22:11 10° SE daylight
15 Jun - 22:07:01 10° SW 22:12:07 19° S 22:17:02 10° SE visible
16 Jun - 00:00:28 10° SW 00:05:05 18° S 00:09:32 10° SSE visible
16 Jun - 19:24:28 10° SSE 19:25:29 10° SSE 19:26:30 10° SSE daylight
16 Jun - 21:13:25 10° SSW 21:18:24 19° S 21:23:15 10° SE visible
16 Jun - 23:06:22 10° SW 23:11:24 19° S 23:16:17 10° SE visible
17 Jun - 01:01:49 10° SW 01:04:13 12° SSW 01:06:36 10° S visible
17 Jun - 20:20:01 10° SSW 20:24:41 17° SSE 20:29:16 10° SE daylight
17 Jun - 22:12:24 10° SW 22:17:43 20° S 22:22:51 10° SE visible
